Time,TemperatureF,DewpointF,PressureIn,WindDirection,WindDirectionDegrees,WindSpeedMPH,WindSpeedGustMPH,Humidity,HourlyPrecipIn,Conditions,Clouds,dailyrainin,SoftwareType,DateUTC
2013-02-10 00:23:00,15.0,-99.9,30.42,North,-999,-999.0,-999.0,-999,-99.99,,,-99.99,,2013-02-10 05:23:00,
2013-02-10 00:32:00,15.0,-99.9,30.42,North,-999,-999.0,-999.0,-999,-99.99,,,-99.99,,2013-02-10 05:32:00,
2013-02-10 00:42:00,15.0,-99.9,30.42,North,-999,-999.0,-999.0,-999,-99.99,,,-99.99,,2013-02-10 05:42:00,
2013-02-10 00:52:00,14.0,-99.9,30.43,North,-999,-999.0,-999.0,-999,-99.99,,,-99.99,,2013-02-10 05:52:00,
2013-02-10 01:22:00,14.0,-99.9,30.43,North,-999,-999.0,-999.0,-999,-99.99,,,-99.99,,2013-02-10 06:22:00,
2013-02-10 01:32:00,14.0,-99.9,30.43,North,-999,-999.0,-999.0,-999,-99.99,,,-99.99,,2013-02-10 06:32:00,
2013-02-10 01:42:00,14.0,-99.9,30.43,North,-999,-999.0,-999.0,-999,-99.99,,,-99.99,,2013-02-10 06:42:00,
2013-02-10 01:52:00,14.0,-99.9,30.44,North,-999,-999.0,-999.0,-999,-99.99,,,-99.99,,2013-02-10 06:52:00,
2013-02-10 02:21:00,14.0,-99.9,30.44,North,-999,-999.0,-999.0,-999,-99.99,,,-99.99,,2013-02-10 07:21:00,
2013-02-10 02:32:00,14.0,-99.9,30.44,North,-999,-999.0,-999.0,-999,-99.99,,,-99.99,,2013-02-10 07:32:00,
2013-02-10 02:42:00,14.0,-99.9,30.44,North,-999,-999.0,-999.0,-999,-99.99,,,-99.99,,2013-02-10 07:42:00,
2013-02-10 03:21:00,12.0,-99.9,30.44,North,-999,-999.0,-999.0,-999,-99.99,,,-99.99,,2013-02-10 08:21:00,
2013-02-10 03:32:00,12.0,-99.9,30.44,North,-999,-999.0,-999.0,-999,-99.99,,,-99.99,,2013-02-10 08:32:00,
2013-02-10 03:43:00,12.0,-99.9,30.44,North,-999,-999.0,-999.0,-999,-99.99,,,-99.99,,2013-02-10 08:43:00,
2013-02-10 03:52:00,12.0,-99.9,30.44,North,-999,-999.0,-999.0,-999,-99.99,,,-99.99,,2013-02-10 08:52:00,
2013-02-10 04:21:00,13.0,-99.9,30.44,North,-999,-999.0,-999.0,-999,-99.99,,,-99.99,,2013-02-10 09:21:00,
2013-02-10 04:32:00,13.0,-99.9,30.44,North,-999,-999.0,-999.0,-999,-99.99,,,-99.99,,2013-02-10 09:32:00,
2013-02-10 04:42:00,13.0,-99.9,30.44,North,-999,-999.0,-999.0,-999,-99.99,,,-99.99,,2013-02-10 09:42:00,
2013-02-10 04:52:00,11.0,-99.9,30.45,North,-999,-999.0,-999.0,-999,-99.99,,,-99.99,,2013-02-10 09:52:00,
2013-02-10 05:21:00,11.0,-99.9,30.45,North,-999,-999.0,-999.0,-999,-99.99,,,-99.99,,2013-02-10 10:21:00,
2013-02-10 05:32:00,11.0,-99.9,30.45,North,-999,-999.0,-999.0,-999,-99.99,,,-99.99,,2013-02-10 10:32:00,
2013-02-10 05:42:00,11.0,-99.9,30.45,North,-999,-999.0,-999.0,-999,-99.99,,,-99.99,,2013-02-10 10:42:00,
2013-02-10 05:52:00,10.0,-99.9,30.45,North,-999,-999.0,-999.0,-999,-99.99,,,-99.99,,2013-02-10 10:52:00,
2013-02-10 06:22:00,10.0,-99.9,30.45,North,-999,-999.0,-999.0,-999,-99.99,,,-99.99,,2013-02-10 11:22:00,
2013-02-10 06:32:00,10.0,-99.9,30.45,North,-999,-999.0,-999.0,-999,-99.99,,,-99.99,,2013-02-10 11:32:00,
2013-02-10 06:42:00,10.0,-99.9,30.45,North,-999,-999.0,-999.0,-999,-99.99,,,-99.99,,2013-02-10 11:42:00,
2013-02-10 06:52:00,13.0,-99.9,30.47,North,-999,-999.0,-999.0,-999,-99.99,,,-99.99,,2013-02-10 11:52:00,
2013-02-10 07:22:00,13.0,-99.9,30.47,North,-999,-999.0,-999.0,-999,-99.99,,,-99.99,,2013-02-10 12:22:00,
2013-02-10 07:32:00,13.0,-99.9,30.47,North,-999,-999.0,-999.0,-999,-99.99,,,-99.99,,2013-02-10 12:32:00,
2013-02-10 07:42:00,13.0,-99.9,30.47,North,-999,-999.0,-999.0,-999,-99.99,,,-99.99,,2013-02-10 12:42:00,
2013-02-10 07:52:00,11.0,-99.9,30.50,North,-999,-999.0,-999.0,-999,-99.99,,,-99.99,,2013-02-10 12:52:00,
2013-02-10 08:21:00,11.0,-99.9,30.50,North,-999,-999.0,-999.0,-999,-99.99,,,-99.99,,2013-02-10 13:21:00,
2013-02-10 08:32:00,11.0,-99.9,30.50,North,-999,-999.0,-999.0,-999,-99.99,,,-99.99,,2013-02-10 13:32:00,
2013-02-10 08:42:00,11.0,-99.9,30.50,North,-999,-999.0,-999.0,-999,-99.99,,,-99.99,,2013-02-10 13:42:00,
2013-02-10 08:52:00,18.0,-99.9,30.52,North,-999,-999.0,-999.0,-999,-99.99,,,-99.99,,2013-02-10 13:52:00,
2013-02-10 09:32:00,18.0,-99.9,30.52,North,-999,-999.0,-999.0,-999,-99.99,,,-99.99,,2013-02-10 14:32:00,
2013-02-10 09:42:00,18.0,-99.9,30.52,North,-999,-999.0,-999.0,-999,-99.99,,,-99.99,,2013-02-10 14:42:00,
2013-02-10 09:52:00,21.0,-99.9,30.54,North,-999,-999.0,-999.0,-999,-99.99,,,-99.99,,2013-02-10 14:52:00,
2013-02-10 10:22:00,21.0,-99.9,30.54,North,-999,-999.0,-999.0,-999,-99.99,,,-99.99,,2013-02-10 15:22:00,
2013-02-10 10:32:00,21.0,-99.9,30.54,North,-999,-999.0,-999.0,-999,-99.99,,,-99.99,,2013-02-10 15:32:00,
2013-02-10 10:42:00,21.0,-99.9,30.54,North,-999,-999.0,-999.0,-999,-99.99,,,-99.99,,2013-02-10 15:42:00,
2013-02-10 10:52:00,27.0,-99.9,30.53,North,-999,-999.0,-999.0,-999,-99.99,,,-99.99,,2013-02-10 15:52:00,
2013-02-10 11:22:00,27.0,-99.9,30.53,North,-999,-999.0,-999.0,-999,-99.99,,,-99.99,,2013-02-10 16:22:00,
2013-02-10 11:32:00,27.0,-99.9,30.53,North,-999,-999.0,-999.0,-999,-99.99,,,-99.99,,2013-02-10 16:32:00,
2013-02-10 11:42:00,27.0,-99.9,30.53,North,-999,-999.0,-999.0,-999,-99.99,,,-99.99,,2013-02-10 16:42:00,
2013-02-10 11:52:00,29.0,-99.9,30.50,North,-999,-999.0,-999.0,-999,-99.99,,,-99.99,,2013-02-10 16:52:00,
2013-02-10 12:32:00,29.0,-99.9,30.50,North,-999,-999.0,-999.0,-999,-99.99,,,-99.99,,2013-02-10 17:32:00,
2013-02-10 12:42:00,29.0,-99.9,30.50,North,-999,-999.0,-999.0,-999,-99.99,,,-99.99,,2013-02-10 17:42:00,
2013-02-10 12:52:00,33.0,-99.9,30.46,North,-999,-999.0,-999.0,-999,-99.99,,,-99.99,,2013-02-10 17:52:00,
2013-02-10 13:22:00,33.0,-99.9,30.46,North,-999,-999.0,-999.0,-999,-99.99,,,-99.99,,2013-02-10 18:22:00,
2013-02-10 13:32:00,33.0,-99.9,30.46,North,-999,-999.0,-999.0,-999,-99.99,,,-99.99,,2013-02-10 18:32:00,
2013-02-10 13:42:00,33.0,-99.9,30.46,North,-999,-999.0,-999.0,-999,-99.99,,,-99.99,,2013-02-10 18:42:00,
2013-02-10 13:52:00,37.0,-99.9,30.44,North,-999,-999.0,-999.0,-999,-99.99,,,-99.99,,2013-02-10 18:52:00,
2013-02-10 14:22:00,37.0,-99.9,30.44,North,-999,-999.0,-999.0,-999,-99.99,,,-99.99,,2013-02-10 19:22:00,
2013-02-10 14:32:00,37.0,-99.9,30.44,North,-999,-999.0,-999.0,-999,-99.99,,,-99.99,,2013-02-10 19:32:00,
2013-02-10 14:43:00,37.0,-99.9,30.44,North,-999,-999.0,-999.0,-999,-99.99,,,-99.99,,2013-02-10 19:43:00,
2013-02-10 14:52:00,37.0,-99.9,30.43,North,-999,-999.0,-999.0,-999,-99.99,,,-99.99,,2013-02-10 19:52:00,
2013-02-10 15:22:00,37.0,-99.9,30.43,North,-999,-999.0,-999.0,-999,-99.99,,,-99.99,,2013-02-10 20:22:00,
2013-02-10 15:32:00,37.0,-99.9,30.43,North,-999,-999.0,-999.0,-999,-99.99,,,-99.99,,2013-02-10 20:32:00,
2013-02-10 15:42:00,37.0,-99.9,30.43,North,-999,-999.0,-999.0,-999,-99.99,,,-99.99,,2013-02-10 20:42:00,
2013-02-10 15:52:00,37.0,-99.9,30.41,North,-999,-999.0,-999.0,-999,-99.99,,,-99.99,,2013-02-10 20:52:00,
2013-02-10 16:22:00,37.0,-99.9,30.41,North,-999,-999.0,-999.0,-999,-99.99,,,-99.99,,2013-02-10 21:22:00,
2013-02-10 16:32:00,37.0,-99.9,30.41,North,-999,-999.0,-999.0,-999,-99.99,,,-99.99,,2013-02-10 21:32:00,
2013-02-10 16:42:00,37.0,-99.9,30.41,North,-999,-999.0,-999.0,-999,-99.99,,,-99.99,,2013-02-10 21:42:00,
2013-02-10 16:52:00,35.0,-99.9,30.40,North,-999,-999.0,-999.0,-999,-99.99,,,-99.99,,2013-02-10 21:52:00,
2013-02-10 17:22:00,35.0,-99.9,30.40,North,-999,-999.0,-999.0,-999,-99.99,,,-99.99,,2013-02-10 22:22:00,
2013-02-10 17:32:00,35.0,-99.9,30.40,North,-999,-999.0,-999.0,-999,-99.99,,,-99.99,,2013-02-10 22:32:00,
2013-02-10 17:42:00,35.0,-99.9,30.40,North,-999,-999.0,-999.0,-999,-99.99,,,-99.99,,2013-02-10 22:42:00,
2013-02-10 17:52:00,26.0,-99.9,30.41,North,-999,-999.0,-999.0,-999,-99.99,,,-99.99,,2013-02-10 22:52:00,
2013-02-10 18:22:00,26.0,-99.9,30.41,North,-999,-999.0,-999.0,-999,-99.99,,,-99.99,,2013-02-10 23:22:00,
2013-02-10 18:32:00,26.0,-99.9,30.41,North,-999,-999.0,-999.0,-999,-99.99,,,-99.99,,2013-02-10 23:32:00,
2013-02-10 18:42:00,26.0,-99.9,30.41,North,-999,-999.0,-999.0,-999,-99.99,,,-99.99,,2013-02-10 23:42:00,
2013-02-10 18:52:00,25.0,-99.9,30.41,North,-999,-999.0,-999.0,-999,-99.99,,,-99.99,,2013-02-10 23:52:00,
2013-02-10 19:22:00,25.0,-99.9,30.41,North,-999,-999.0,-999.0,-999,-99.99,,,-99.99,,2013-02-11 00:22:00,
2013-02-10 19:32:00,25.0,-99.9,30.41,North,-999,-999.0,-999.0,-999,-99.99,,,-99.99,,2013-02-11 00:32:00,
2013-02-10 19:42:00,25.0,-99.9,30.41,North,-999,-999.0,-999.0,-999,-99.99,,,-99.99,,2013-02-11 00:42:00,
2013-02-10 19:52:00,22.0,-99.9,30.39,North,-999,-999.0,-999.0,-999,-99.99,,,-99.99,,2013-02-11 00:52:00,
2013-02-10 20:22:00,22.0,-99.9,30.39,North,-999,-999.0,-999.0,-999,-99.99,,,-99.99,,2013-02-11 01:22:00,
2013-02-10 20:32:00,22.0,-99.9,30.39,North,-999,-999.0,-999.0,-999,-99.99,,,-99.99,,2013-02-11 01:32:00,
2013-02-10 20:42:00,22.0,-99.9,30.39,North,-999,-999.0,-999.0,-999,-99.99,,,-99.99,,2013-02-11 01:42:00,
2013-02-10 20:52:00,27.0,-99.9,30.39,North,-999,-999.0,-999.0,-999,-99.99,,,-99.99,,2013-02-11 01:52:00,
2013-02-10 21:21:00,27.0,-99.9,30.39,North,-999,-999.0,-999.0,-999,-99.99,,,-99.99,,2013-02-11 02:21:00,
2013-02-10 21:32:00,27.0,-99.9,30.39,North,-999,-999.0,-999.0,-999,-99.99,,,-99.99,,2013-02-11 02:32:00,
2013-02-10 21:42:00,27.0,-99.9,30.39,North,-999,-999.0,-999.0,-999,-99.99,,,-99.99,,2013-02-11 02:42:00,
2013-02-10 21:52:00,30.0,-99.9,30.37,North,-999,-999.0,-999.0,-999,-99.99,,,-99.99,,2013-02-11 02:52:00,
2013-02-10 22:22:00,30.0,-99.9,30.37,North,-999,-999.0,-999.0,-999,-99.99,,,-99.99,,2013-02-11 03:22:00,
2013-02-10 22:32:00,30.0,-99.9,30.37,North,-999,-999.0,-999.0,-999,-99.99,,,-99.99,,2013-02-11 03:32:00,
2013-02-10 22:42:00,30.0,-99.9,30.37,North,-999,-999.0,-999.0,-999,-99.99,,,-99.99,,2013-02-11 03:42:00,
2013-02-10 22:52:00,30.0,-99.9,30.34,North,-999,-999.0,-999.0,-999,-99.99,,,-99.99,,2013-02-11 03:52:00,
2013-02-10 23:32:00,30.0,-99.9,30.34,North,-999,-999.0,-999.0,-999,-99.99,,,-99.99,,2013-02-11 04:32:00,
2013-02-10 23:42:00,30.0,-99.9,30.34,North,-999,-999.0,-999.0,-999,-99.99,,,-99.99,,2013-02-11 04:42:00,
2013-02-10 23:52:00,30.0,-99.9,30.35,North,-999,-999.0,-999.0,-999,-99.99,,,-99.99,,2013-02-11 04:52:00,